Tracking 30995 objects as of 7-Jul-2025
HD Live streaming from Space Station
objects crossing your sky now

FENGYUN 1C DEB

Track FENGYUN 1C DEB now!
10-day predictions


NORAD ID: 31030
Int'l Code: 1999-025BDY
Perigee: 802.3 km
Apogee: 843.2 km
Inclination: 98.8 °
Period: 101.2 minutes
Semi major axis: 7193 km
RCS: 0.0064 m2 (small)
Launch date: May 10, 1999
Source: People's Republic of China (PRC)
Launch site: Taiyaun Space Center, China (TSC)

Note: This is SATELLITE DEBRIS
Your satellite tracking list
Your tracking list is empty




NASA's NSSDC Master Catalog

Two Line Element Set (TLE):
1 31030U 99025BDY 25187.11814005  .00001415  00000-0  64669-3 0  9990
2 31030  98.7808 249.5543 0028405 180.0793 210.3013 14.22885788944345
Source of the keplerian elements: AFSPC